Madison, SD

5:17 PM CST on December 08, 2019 (GMT -0600)
Madison Municipal

Weather History for KMDS - November, 2019

Change the Weather History Date:

Saturday, November 16, 2019

  Actual Average Record
Temperature  
Mean Temperature 40 °F -  
Max Temperature 46 °F 41 °F 59 °F (2016)
Min Temperature 35 °F 22 °F -5 °F (2014)
Degree Days  
Heating Degree Days 24    
Moisture  
Dew Point 35 °F    
Average Humidity 83    
Maximum Humidity 100    
Minimum Humidity 62    
Precipitation  
Precipitation 0.01 in - - ()
Sea Level Pressure  
Sea Level Pressure 29.95 in    
Wind  
Wind Speed 14 mph ()    
Max Wind Speed 26 mph    
Max Gust Speed 30 mph    
Visibility 10.0 miles    
Events Rain    
Averages and records for this station are not official NWS values.
T = Trace of Precipitation, MM = Missing Value Source: Averaged Metar Reports

Daily Weather History Graph

Daily Weather History Graph

Search for Another Location

Airport or City:

Astronomy

Nov. 16, 2019 Rise Set
Actual Time 7:24 AM CST 5:01 PM CST
Civil Twilight 6:53 AM CST 5:32 PM CST
Nautical Twilight 6:18 AM CST 6:07 PM CST
Astronomical Twilight 5:44 AM CST 6:41 PM CST
Moon 8:31 PM CST (11/16) 11:23 AM CST (11/16)
Length of Visible Light 10h 39m
Length of Day
9h 36m
Waning Gibbous, 82% of the Moon is Illuminated
Nov 16
Waning Gibbous
Nov 19
Last Quarter
Nov 26
New
Dec 4
First Quarter
Dec 11
Full

Hourly Weather History & Observations

Time (CST) Temp. Windchill Dew Point Humidity Pressure Visibility Wind Dir Wind Speed Gust Speed Precip Events Conditions
12:15 AM 39.2 °F 29.8 °F 33.8 °F 81% 30.04 in 10.0 mi SSE 18.4 mph 25.3 mph N/A   Clear
12:55 AM 37.4 °F 27.8 °F 33.8 °F 87% 30.03 in 10.0 mi South 17.3 mph 24.2 mph N/A   Clear
1:15 AM 37.4 °F 27.8 °F 33.8 °F 87% 30.02 in 10.0 mi South 17.3 mph 26.5 mph N/A   Clear
1:35 AM 37.4 °F 27.5 °F 33.8 °F 87% 30.01 in 10.0 mi South 18.4 mph 24.2 mph N/A   Clear
1:55 AM 37.4 °F 27.8 °F 33.8 °F 87% 30.01 in 10.0 mi South 17.3 mph 23.0 mph N/A   Clear
2:15 AM 39.2 °F 30.2 °F 33.8 °F 81% 30.00 in 10.0 mi South 17.3 mph 24.2 mph N/A   Clear
2:35 AM 39.2 °F 30.5 °F 33.8 °F 81% 30.00 in 10.0 mi South 16.1 mph 24.2 mph N/A   Clear
2:55 AM 39.2 °F 29.6 °F 33.8 °F 81% 29.99 in 10.0 mi South 19.6 mph 24.2 mph N/A   Clear
3:15 AM 39.2 °F 29.6 °F 33.8 °F 81% 29.99 in 10.0 mi South 19.6 mph 24.2 mph N/A   Clear
3:35 AM 39.2 °F 29.6 °F 33.8 °F 81% 29.98 in 10.0 mi South 19.6 mph 26.5 mph N/A   Clear
3:55 AM 39.2 °F 29.3 °F 33.8 °F 81% 29.98 in 10.0 mi South 20.7 mph 27.6 mph N/A   Partly Cloudy
4:35 AM 37.4 °F 26.9 °F 33.8 °F 87% 29.97 in 10.0 mi South 20.7 mph 25.3 mph N/A   Partly Cloudy
4:55 AM 37.4 °F 27.2 °F 33.8 °F 87% 29.96 in 10.0 mi South 19.6 mph 24.2 mph N/A   Clear
5:15 AM 37.4 °F 28.2 °F 33.8 °F 87% 29.97 in 10.0 mi South 16.1 mph 21.9 mph N/A   Clear
5:35 AM 35.6 °F 25.9 °F 33.8 °F 93% 29.97 in 10.0 mi South 16.1 mph 23.0 mph N/A   Clear
5:55 AM 35.6 °F 25.2 °F 33.8 °F 93% 29.96 in 10.0 mi South 18.4 mph 24.2 mph N/A   Clear
6:15 AM 35.6 °F 25.5 °F 33.8 °F 93% 29.96 in 10.0 mi South 17.3 mph 21.9 mph N/A   Clear
6:35 AM 35.6 °F 25.9 °F 33.8 °F 93% 29.97 in 10.0 mi South 16.1 mph - N/A   Clear
6:55 AM 35.6 °F 25.5 °F 32.0 °F 87% 29.96 in 10.0 mi South 17.3 mph 21.9 mph N/A   Clear
7:15 AM 35.6 °F 25.9 °F 32.0 °F 87% 29.96 in 10.0 mi South 16.1 mph - N/A   Clear
7:55 AM 35.6 °F 25.2 °F 32.0 °F 87% 29.95 in 10.0 mi South 18.4 mph 24.2 mph N/A   Clear
8:15 AM 35.6 °F 24.8 °F 32.0 °F 87% 29.95 in 10.0 mi South 19.6 mph 23.0 mph N/A   Clear
8:55 AM 37.4 °F 26.6 °F 32.0 °F 81% 29.94 in 10.0 mi South 21.9 mph 26.5 mph N/A   Clear
9:35 AM 39.2 °F 29.3 °F 32.0 °F 75% 29.94 in 10.0 mi South 20.7 mph 27.6 mph N/A   Clear
9:55 AM 37.4 °F 26.6 °F 32.0 °F 81% 29.92 in 10.0 mi South 21.9 mph 29.9 mph N/A   Clear
10:15 AM 39.2 °F 29.8 °F 33.8 °F 81% 29.93 in 10.0 mi South 18.4 mph 28.8 mph N/A   Clear
10:35 AM 39.2 °F 28.5 °F 33.8 °F 81% 29.92 in 10.0 mi South 24.2 mph 28.8 mph N/A   Clear
10:55 AM 41.0 °F 30.5 °F 33.8 °F 76% 29.91 in 10.0 mi South 26.5 mph 29.9 mph N/A   Clear
11:15 AM 42.8 °F 34.3 °F 33.8 °F 70% 29.91 in 10.0 mi South 19.6 mph 29.9 mph N/A   Clear
11:35 AM 44.6 °F 36.6 °F 33.8 °F 66% 29.90 in 10.0 mi South 19.6 mph 23.0 mph N/A   Clear
11:55 AM 44.6 °F 37.2 °F 33.8 °F 66% 29.90 in 10.0 mi SSW 17.3 mph 25.3 mph N/A   Clear
12:15 PM 44.6 °F 37.2 °F 33.8 °F 66% 29.90 in 10.0 mi SSW 17.3 mph 21.9 mph N/A   Clear
12:35 PM 44.6 °F 37.8 °F 33.8 °F 66% 29.88 in 10.0 mi South 15.0 mph - N/A   Clear
12:55 PM 44.6 °F 36.9 °F 33.8 °F 66% 29.88 in 10.0 mi South 18.4 mph 23.0 mph N/A   Clear
1:15 PM 46.4 °F 39.2 °F 33.8 °F 62% 29.88 in 10.0 mi South 18.4 mph 23.0 mph N/A   Clear
1:35 PM 44.6 °F 37.4 °F 33.8 °F 66% 29.88 in 10.0 mi SSW 16.1 mph - N/A   Clear
1:55 PM 46.4 °F 40.7 °F 33.8 °F 62% 29.87 in 10.0 mi SSW 12.7 mph - N/A   Clear
2:15 PM 46.4 °F 40.4 °F 33.8 °F 62% 29.86 in 10.0 mi SSW 13.8 mph - N/A   Clear
2:35 PM 46.4 °F 40.7 °F 33.8 °F 62% 29.88 in 10.0 mi SSW 12.7 mph - N/A   Clear
2:55 PM 46.4 °F 41.9 °F 33.8 °F 62% 29.89 in 10.0 mi SW 9.2 mph - N/A   Clear
3:15 PM 46.4 °F 43.5 °F 35.6 °F 66% 29.89 in 10.0 mi SSW 5.8 mph - N/A   Clear
3:35 PM 44.6 °F 42.2 °F 35.6 °F 71% 29.89 in 10.0 mi SSW 4.6 mph - N/A   Clear
3:55 PM 44.6 °F 43.1 °F 35.6 °F 71% 29.89 in 10.0 mi SSW 3.5 mph - N/A   Clear
4:15 PM 44.6 °F 43.1 °F 35.6 °F 71% 29.90 in 10.0 mi South 3.5 mph - N/A   Clear
4:35 PM 42.8 °F 39.3 °F 35.6 °F 76% 29.91 in 10.0 mi South 5.8 mph - N/A   Clear
4:55 PM 41.0 °F 39.0 °F 35.6 °F 81% 29.92 in 10.0 mi SSW 3.5 mph - N/A   Clear
5:15 PM 42.8 °F - 35.6 °F 76% 29.92 in 10.0 mi Calm Calm - N/A   Mostly Cloudy
5:35 PM 41.0 °F - 35.6 °F 81% 29.92 in 10.0 mi Calm Calm - N/A   Overcast
5:55 PM 41.0 °F - 35.6 °F 81% 29.92 in 10.0 mi Calm Calm - N/A   Overcast
6:15 PM 41.0 °F 39.0 °F 35.6 °F 81% 29.93 in 10.0 mi West 3.5 mph - N/A   Overcast
6:35 PM 41.0 °F 37.1 °F 37.4 °F 87% 29.94 in 10.0 mi WNW 5.8 mph - N/A Rain Light Rain
6:55 PM 39.2 °F 35.0 °F 39.2 °F 100% 29.95 in 10.0 mi NW 5.8 mph - N/A Rain Light Rain
7:15 PM 39.2 °F 34.2 °F 39.2 °F 100% 29.95 in 10.0 mi NNW 6.9 mph - N/A Rain Light Rain
7:35 PM 37.4 °F 33.8 °F 37.4 °F 100% 29.95 in 10.0 mi NW 4.6 mph - 0.01 in Rain Light Rain
7:55 PM 39.2 °F 32.0 °F 39.2 °F 100% 29.96 in 10.0 mi WNW 11.5 mph - 0.01 in   Overcast
8:15 PM 37.4 °F 29.3 °F 37.4 °F 100% 29.97 in 10.0 mi NW 12.7 mph - N/A Rain Light Rain
8:35 PM 37.4 °F 30.3 °F 37.4 °F 100% 29.97 in 10.0 mi NW 10.4 mph - N/A Rain Light Rain
8:55 PM 37.4 °F 30.8 °F 37.4 °F 100% 29.98 in 10.0 mi WNW 9.2 mph - N/A Rain Light Rain
9:15 PM 37.4 °F 30.8 °F 37.4 °F 100% 29.98 in 10.0 mi WNW 9.2 mph - N/A Rain Light Rain
9:35 PM 37.4 °F 30.8 °F 37.4 °F 100% 29.99 in 10.0 mi WNW 9.2 mph - N/A Rain Light Rain
9:55 PM 37.4 °F 31.4 °F 37.4 °F 100% 29.98 in 10.0 mi WNW 8.1 mph - N/A Rain Light Rain
10:15 PM 37.4 °F 30.3 °F 37.4 °F 100% 29.98 in 10.0 mi WNW 10.4 mph - N/A   Overcast
10:35 PM 37.4 °F 29.3 °F 37.4 °F 100% 29.98 in 10.0 mi WNW 12.7 mph - N/A Rain Light Rain
10:55 PM 37.4 °F 29.3 °F 37.4 °F 100% 29.98 in 10.0 mi NW 12.7 mph - N/A Rain Light Rain
11:15 PM 37.4 °F 29.8 °F 37.4 °F 100% 29.98 in 10.0 mi NW 11.5 mph - N/A   Overcast
11:35 PM 37.4 °F 29.3 °F 37.4 °F 100% 29.98 in 10.0 mi NW 12.7 mph - N/A   Overcast
11:55 PM 37.4 °F 30.8 °F 37.4 °F 100% 29.98 in 10.0 mi NW 9.2 mph - N/A   Overcast